Terminal Aerodrome Forecast
Issued by NWS

Home | Current Version | Previous Version | Text Only | Print | Product List | Glossary On
Versions: 1 2 3 4 5 6 7 8 9 10 11 12 13 14
432
FTUS45 KRIW 172324
TAFCPR
TAF
KCPR 172324Z 1800/1824 35015G25KT 2SM -SN SCT007 BKN012 OVC030
      TEMPO 1800/1801 3/4SM -SN BKN006
     FM180300 33008KT P6SM VCSH SCT020 BKN070
     FM180600 28008KT P6SM SCT080=

USA.gov is the U.S. government's official web portal to all federal, state and local government web resources and services.